Date,TemperatureHighF,TemperatureAvgF,TemperatureLowF,DewpointHighF,DewpointAvgF,DewpointLowF,HumidityHigh,HumidityAvg,HumidityLow,PressureMaxIn,PressureMinIn,WindSpeedMaxMPH,WindSpeedAvgMPH,GustSpeedMaxMPH,PrecipitationSumIn
2013-1-1,51.0,38.6,30.0,28.0,18.2,6.0,86,50,19,0.00,40.00,8,4,19,0.00
2013-1-2,61.0,42.0,34.0,20.0,13.2,9.0,45,32,16,0.00,40.00,5,4,8,0.00
2013-1-3,59.0,42.5,34.0,23.0,16.3,12.0,54,36,17,0.00,40.00,5,4,8,0.00
2013-1-4,58.0,43.1,35.0,18.0,15.2,12.0,43,33,19,0.00,40.00,5,4,8,0.00
2013-1-5,56.0,44.0,36.0,20.0,15.7,10.0,44,32,22,0.00,40.00,5,4,8,0.00
2013-1-6,45.0,40.2,36.0,37.0,29.0,10.0,88,67,26,0.00,40.00,12,6,25,0.15
2013-1-7,49.0,37.8,29.0,34.0,29.4,27.0,96,73,49,0.00,40.00,8,3,11,0.01
2013-1-8,63.0,45.2,34.0,35.0,28.9,24.0,74,55,30,0.00,40.00,5,3,8,0.00
2013-1-9,60.0,51.6,44.0,34.0,30.8,28.0,56,45,34,0.00,40.00,13,4,43,0.00
2013-1-10,49.0,35.3,29.0,38.0,25.8,18.0,93,69,51,0.00,40.00,17,9,43,0.01
2013-1-11,35.0,32.2,29.0,24.0,19.1,15.0,73,58,48,0.00,40.00,14,10,27,0.03
2013-1-12,40.0,30.4,23.0,20.0,16.8,13.0,75,58,38,0.00,40.00,11,5,19,0.01
2013-1-13,40.0,29.1,22.0,20.0,15.8,10.0,79,58,38,0.00,40.00,9,4,23,0.00
2013-1-14,43.0,29.5,21.0,14.0,6.4,-3.0,60,40,16,0.00,40.00,6,4,8,0.00
2013-1-15,53.0,36.7,26.0,15.0,9.3,3.0,40,32,21,0.00,40.00,5,4,8,0.00
2013-1-16,62.0,44.7,35.0,24.0,19.3,13.0,50,37,23,0.00,40.00,5,4,8,0.00
2013-1-17,67.0,48.5,40.0,21.0,11.6,5.0,39,24,11,0.00,40.00,6,4,10,0.00
2013-1-18,67.0,48.9,39.0,9.0,6.0,3.0,22,18,9,0.00,40.00,6,5,10,0.00
2013-1-19,71.0,50.6,41.0,9.0,3.7,-5.0,24,15,6,0.00,40.00,6,4,12,0.00
2013-1-20,68.0,49.9,38.0,10.0,6.0,1.0,25,17,10,0.00,40.00,6,4,9,0.00
2013-1-21,72.0,52.0,41.0,17.0,9.4,5.0,26,19,7,0.00,40.00,8,4,11,0.00
2013-1-22,70.0,52.9,44.0,16.0,9.0,0.0,26,18,6,0.00,40.00,6,4,14,0.00
2013-1-23,61.0,51.6,47.0,44.0,18.5,8.0,83,29,18,0.00,40.00,5,4,10,0.02
2013-1-24,56.0,48.8,45.0,50.0,45.2,40.0,100,87,74,0.00,40.00,4,3,6,0.24
2013-1-25,57.0,50.7,47.0,48.0,45.7,44.0,94,83,68,0.00,40.00,4,3,7,0.02
2013-1-26,56.0,50.5,47.0,52.0,45.0,39.0,100,82,64,0.00,40.00,21,8,35,0.07
2013-1-27,49.0,41.3,37.0,41.0,31.2,24.0,85,67,60,0.00,40.00,17,10,37,0.16
2013-1-28,41.0,37.5,36.0,28.0,25.6,23.0,72,62,53,0.00,40.00,17,12,30,0.01
2013-1-29,47.0,40.4,36.0,32.0,28.8,25.0,80,64,52,0.00,40.00,18,11,31,0.00
2013-1-30,65.0,46.9,35.0,37.0,31.1,28.0,85,58,27,0.00,40.00,14,4,25,0.00
2013-1-31,69.0,54.5,41.0,36.0,30.2,25.0,63,41,23,0.00,40.00,7,3,15,0.00
2013-2-1,68.0,52.3,41.0,33.0,29.8,27.0,62,44,23,0.00,40.00,6,4,8,0.00
2013-2-2,66.0,55.5,47.0,33.0,28.6,26.0,49,37,24,0.00,40.00,6,3,10,0.00
2013-2-3,65.0,54.8,46.0,38.0,31.6,23.0,62,43,29,0.00,40.00,13,5,23,0.00
2013-2-4,70.0,52.4,41.0,37.0,30.8,27.0,67,46,23,0.00,40.00,8,4,13,0.00
2013-2-5,68.0,51.7,41.0,39.0,30.5,26.0,65,46,22,0.00,40.00,20,7,37,0.00
2013-2-6,57.0,47.9,39.0,38.0,34.7,31.0,76,61,43,0.00,40.00,22,8,35,0.00
2013-2-7,60.0,42.0,35.0,36.0,29.5,20.0,87,64,27,0.00,40.00,25,8,41,0.00
2013-2-8,44.0,37.0,35.0,33.0,27.4,22.0,83,69,49,0.00,40.00,17,10,35,0.02
2013-2-9,43.0,37.4,32.0,29.0,24.2,17.0,77,59,44,0.00,40.00,23,12,35,0.01
2013-2-10,50.0,37.6,28.0,27.0,23.5,19.0,80,58,37,0.00,40.00,15,5,25,0.00
2013-2-11,54.0,39.7,30.0,28.0,21.9,16.0,73,52,23,0.00,40.00,12,5,20,0.00
2013-2-12,58.0,42.0,31.0,25.0,21.0,17.0,67,46,22,0.00,40.00,8,4,22,0.00
2013-2-13,64.0,46.1,34.0,27.0,22.0,16.0,58,41,17,0.00,40.00,12,4,21,0.00
2013-2-14,71.0,51.4,39.0,28.0,23.7,18.0,58,37,13,0.00,40.00,7,4,16,0.00
2013-2-15,73.0,55.4,42.0,27.0,19.2,12.0,45,27,10,0.00,40.00,9,5,20,0.00
2013-2-16,71.0,55.3,44.0,21.0,13.8,4.0,36,21,7,0.00,40.00,10,5,18,0.00
2013-2-17,62.0,50.6,40.0,31.0,23.8,18.0,48,35,24,0.00,40.00,20,8,32,0.00
2013-2-18,65.0,50.0,38.0,33.0,27.8,23.0,63,44,22,0.00,40.00,19,7,32,0.00
2013-2-19,48.0,40.4,31.0,37.0,31.0,25.0,97,70,52,0.00,40.00,16,8,32,0.07
2013-2-20,39.0,33.9,30.0,27.0,24.5,20.0,86,68,52,0.00,40.00,22,10,38,0.28
2013-2-21,50.0,37.4,28.0,31.0,26.7,22.0,88,67,45,0.00,40.00,15,6,28,0.04
2013-2-22,56.0,41.6,30.0,31.0,27.5,24.0,81,60,30,0.00,40.00,12,6,27,0.00
2013-2-23,53.0,45.7,37.0,33.0,29.3,23.0,71,53,39,0.00,40.00,19,11,34,0.00
2013-2-24,61.0,44.3,34.0,33.0,21.8,7.0,81,47,13,0.00,40.00,8,4,15,0.00
2013-2-25,59.0,45.7,33.0,25.0,19.0,13.0,51,35,22,0.00,40.00,24,10,41,0.00
2013-2-26,62.0,46.3,36.0,33.0,27.9,24.0,67,50,27,0.00,40.00,18,6,28,0.00
2013-2-27,66.0,48.2,36.0,30.0,23.1,15.0,69,42,15,0.00,40.00,12,5,22,0.00
2013-2-28,67.0,50.1,38.0,29.0,24.6,20.0,50,38,20,0.00,40.00,13,5,21,0.00
2013-3-1,76.0,54.4,41.0,29.0,24.2,17.0,55,35,13,0.00,40.00,9,4,18,0.00
2013-3-2,75.0,59.6,48.0,31.0,23.2,18.0,34,25,15,0.00,40.00,9,5,20,0.00
2013-3-3,65.0,57.3,52.0,37.0,31.2,21.0,53,38,23,0.00,40.00,13,8,27,0.00
2013-3-4,65.0,55.2,49.0,41.0,36.8,33.0,65,51,32,0.00,40.00,15,8,26,0.00
2013-3-5,73.0,55.0,44.0,40.0,31.0,22.0,68,44,18,0.00,40.00,16,6,27,0.00
2013-3-6,53.0,47.9,44.0,40.0,33.3,23.0,72,57,33,0.00,40.00,15,8,28,0.00
2013-3-7,54.0,46.5,40.0,37.0,32.9,30.0,84,60,42,0.00,40.00,13,6,24,0.00
2013-3-8,43.0,39.4,33.0,40.0,32.6,30.0,98,77,64,0.00,40.00,20,8,33,0.43
2013-3-9,50.0,42.5,36.0,36.0,33.4,31.0,88,71,54,0.00,40.00,19,11,29,0.07
2013-3-10,67.0,49.4,34.0,37.0,32.1,26.0,93,57,21,0.00,40.00,11,4,21,0.00
2013-3-11,75.0,52.5,40.0,35.0,29.4,19.0,71,46,12,0.00,40.00,17,5,25,0.00
2013-3-12,80.0,58.2,46.0,36.0,31.5,19.0,64,41,11,0.00,40.00,7,4,11,0.00
2013-3-13,84.0,62.9,49.0,41.0,33.1,25.0,52,36,12,0.00,40.00,8,4,15,0.00
2013-3-14,84.0,65.5,54.0,40.0,32.2,27.0,43,30,13,0.00,40.00,17,6,26,0.00
2013-3-15,77.0,63.4,53.0,49.0,40.0,32.0,62,43,30,0.00,40.00,20,8,34,0.00
2013-3-16,70.0,62.5,57.0,50.0,42.0,36.0,63,48,35,0.00,40.00,23,12,37,0.00
2013-3-17,68.0,60.2,56.0,36.0,30.6,23.0,43,33,18,0.00,40.00,27,16,40,0.00
2013-3-18,69.0,57.3,45.0,38.0,31.8,23.0,65,39,24,0.00,40.00,26,10,36,0.00
2013-3-19,71.0,61.8,55.0,34.0,28.7,19.0,34,28,22,0.00,40.00,20,13,36,0.00
2013-3-20,65.0,59.4,55.0,38.0,35.4,29.0,51,41,26,0.00,40.00,16,12,34,0.00
2013-3-21,63.0,55.6,51.0,41.0,38.6,36.0,63,54,37,0.00,40.00,23,14,41,0.00
2013-3-22,61.0,52.1,45.0,38.0,33.7,27.0,68,51,31,0.00,40.00,23,14,39,0.00
2013-3-23,69.0,51.8,38.0,36.0,26.5,11.0,76,44,17,0.00,40.00,17,7,31,0.00
2013-3-24,71.0,55.8,42.0,33.0,25.2,15.0,47,32,20,0.00,40.00,24,8,34,0.00
2013-3-25,72.0,57.7,46.0,34.0,27.9,15.0,52,34,17,0.00,40.00,15,7,30,0.00
2013-3-26,71.0,60.1,48.0,37.0,30.3,15.0,46,33,17,0.00,40.00,12,7,30,0.00
2013-3-27,67.0,59.9,55.0,39.0,35.5,30.0,49,40,33,0.00,40.00,14,10,35,0.00
2013-3-28,69.0,64.0,58.0,40.0,35.4,32.0,39,35,27,0.00,40.00,13,8,29,0.00
2013-3-29,79.0,62.5,48.0,42.0,33.9,27.0,54,37,15,0.00,40.00,16,6,26,0.00
2013-3-30,78.0,65.4,54.0,41.0,34.7,-99.9,54,36,17,0.00,40.00,15,6,27,0.00
2013-3-31,63.0,56.8,51.0,46.0,40.3,36.0,82,55,38,0.00,40.00,19,10,30,0.09
2013-4-1,61.0,52.9,47.0,42.0,37.5,33.0,75,57,40,0.00,40.00,19,12,35,0.09
2013-4-2,67.0,56.1,45.0,42.0,39.5,35.0,81,55,37,0.00,40.00,23,9,35,0.00
2013-4-3,82.0,61.3,46.0,43.0,38.6,32.0,77,48,17,0.00,40.00,17,5,26,0.00
2013-4-4,67.0,60.6,54.0,44.0,37.9,27.0,61,44,23,0.00,40.00,16,7,29,0.00
2013-4-5,63.0,57.8,54.0,45.0,42.2,40.0,66,56,45,0.00,40.00,20,13,37,0.00
2013-4-6,63.0,56.9,52.0,42.0,37.2,31.0,59,48,39,0.00,40.00,23,15,40,0.00
2013-4-7,64.0,58.1,54.0,41.0,39.2,36.0,59,49,41,0.00,40.00,28,14,42,0.00
2013-4-8,56.0,45.9,38.0,41.0,34.6,30.0,83,65,54,0.00,40.00,17,10,37,0.33
2013-4-9,60.0,50.4,38.0,35.0,28.3,21.0,77,45,24,0.00,40.00,20,9,33,0.01
2013-4-10,74.0,58.8,43.0,32.0,26.9,22.0,53,32,14,0.00,40.00,19,8,35,0.00
2013-4-11,71.0,62.4,48.0,42.0,34.7,23.0,53,37,26,0.00,40.00,17,10,35,0.00
2013-4-12,81.0,63.7,50.0,45.0,39.6,30.0,72,46,18,0.00,40.00,12,6,28,0.00
2013-4-13,75.0,66.6,60.0,44.0,37.2,27.0,54,36,20,0.00,40.00,22,11,47,0.00
2013-4-14,66.0,62.1,58.0,42.0,36.5,28.0,47,39,31,0.00,40.00,31,15,46,0.00
2013-4-15,59.0,54.0,45.0,38.0,32.4,27.0,57,44,31,0.00,40.00,27,15,45,0.00
2013-4-16,55.0,44.4,36.0,30.0,26.8,23.0,69,51,30,0.00,40.00,19,12,34,0.00
2013-5-19,77.0,72.0,65.0,38.0,35.4,34.0,32,26,23,0.00,40.00,16,12,31,0.00
2013-5-20,89.0,71.4,55.0,42.0,35.4,27.0,52,30,11,0.00,40.00,10,4,26,0.00
2013-5-21,85.0,72.7,58.0,36.0,28.2,16.0,35,21,11,0.00,40.00,11,5,28,0.00
2013-5-22,68.0,61.1,54.0,34.0,29.8,20.0,39,31,21,0.00,40.00,23,14,44,0.00
2013-5-23,66.0,58.4,53.0,29.0,20.5,10.0,36,23,16,0.00,40.00,20,13,46,0.00
2013-5-24,75.0,63.3,46.0,33.0,30.3,26.0,48,30,19,0.00,40.00,18,8,36,0.00
2013-5-25,74.0,66.0,59.0,34.0,30.5,25.0,39,27,16,0.00,40.00,17,10,40,0.00
2013-5-26,71.0,64.3,60.0,41.0,33.5,28.0,46,32,26,0.00,40.00,20,12,43,0.00
2013-5-27,72.0,64.2,60.0,43.0,39.1,35.0,48,40,28,0.00,40.00,23,14,39,0.00
2013-5-28,69.0,62.4,57.0,47.0,44.1,35.0,60,51,39,0.00,40.00,23,15,39,0.00
2013-5-29,74.0,65.8,59.0,49.0,45.4,41.0,57,48,34,0.00,40.00,20,13,40,0.00
2013-5-30,79.0,70.8,61.0,48.0,43.7,38.0,55,39,24,0.00,40.00,22,11,41,0.00
2013-5-31,88.0,75.1,61.0,46.0,38.2,26.0,44,27,18,0.00,40.00,18,9,30,0.00
2013-6-1,99.0,77.1,60.0,44.0,36.9,16.0,47,28,5,0.00,40.00,11,5,27,0.00
2013-6-2,94.0,78.9,65.0,41.0,35.5,28.0,33,22,11,0.00,40.00,9,4,26,0.00
2013-6-3,92.0,79.5,64.0,46.0,41.6,36.0,37,27,17,0.00,40.00,18,8,32,0.00
2013-6-4,90.0,77.6,63.0,49.0,46.5,41.0,53,35,23,0.00,40.00,21,8,33,0.00
2013-6-5,98.0,79.2,63.0,52.0,49.5,47.0,57,37,20,0.00,40.00,20,8,35,0.00
2013-6-6,99.0,81.1,65.0,54.0,49.7,42.0,60,36,18,0.00,40.00,17,7,31,0.00
2013-6-7,102.0,84.6,67.0,55.0,48.7,35.0,58,32,10,0.00,40.00,17,6,31,0.00
2013-6-8,113.0,88.0,70.0,52.0,44.7,20.0,49,26,4,0.00,40.00,12,5,30,0.00
2013-6-9,97.0,86.1,74.0,56.0,42.6,15.0,44,25,9,0.00,40.00,14,7,24,0.00
2013-6-10,82.0,73.4,63.0,47.0,36.4,13.0,40,27,10,0.00,40.00,13,7,33,0.00
2013-6-11,92.0,78.2,63.0,45.0,39.7,34.0,43,27,13,0.00,40.00,13,5,26,0.00
2013-6-12,91.0,79.4,65.0,46.0,39.6,29.0,40,25,16,0.00,40.00,8,5,27,0.00
2013-6-13,81.0,74.6,69.0,43.0,31.0,26.0,35,21,14,0.00,40.00,17,11,36,0.00
2013-6-14,88.0,72.4,57.0,36.0,33.1,29.0,38,24,13,0.00,40.00,18,9,33,0.00
2013-6-15,87.0,75.0,59.0,36.0,31.5,25.0,41,22,12,0.00,40.00,13,6,28,0.00
2013-6-16,84.0,75.9,69.0,37.0,32.3,29.0,28,21,15,0.00,40.00,13,9,35,0.00
2013-6-17,85.0,75.4,69.0,44.0,37.6,32.0,36,26,20,0.00,40.00,17,11,37,0.00
2013-6-18,82.0,73.0,64.0,41.0,37.2,33.0,41,28,21,0.00,40.00,20,11,37,0.00
2013-6-19,73.0,65.4,58.0,41.0,36.0,29.0,45,35,21,0.00,40.00,21,15,42,0.00
2013-6-20,77.0,66.7,62.0,39.0,33.2,31.0,43,30,20,0.00,40.00,16,11,41,0.00
2013-6-21,80.0,78.8,77.0,38.0,36.4,35.0,23,22,20,0.00,40.00,19,16,35,0.00
2013-6-22,84.0,78.5,61.0,40.0,36.0,32.0,40,22,17,0.00,40.00,16,10,37,0.00
2013-6-23,80.0,73.7,68.0,44.0,38.1,32.0,39,28,19,0.00,40.00,15,11,36,0.00
2013-6-24,74.0,68.1,63.0,52.0,45.7,30.0,60,45,27,0.00,40.00,16,10,33,0.00
2013-6-25,86.0,74.2,65.0,55.0,51.7,49.0,64,47,31,0.00,40.00,16,10,29,0.00
2013-6-26,91.0,80.7,71.0,58.0,54.1,51.0,53,41,26,0.00,40.00,17,9,33,0.00
2013-6-27,98.0,82.4,72.0,61.0,56.9,54.0,66,44,26,0.00,40.00,19,8,32,0.00
2013-6-28,99.0,85.3,71.0,61.0,56.1,51.0,64,40,23,0.00,40.00,15,8,33,0.00
2013-6-29,101.0,87.5,73.0,57.0,52.6,47.0,53,32,18,0.00,40.00,16,8,30,0.00
2013-6-30,109.0,89.8,73.0,55.0,49.0,43.0,45,27,13,0.00,40.00,12,6,25,0.00
2013-7-1,105.0,88.6,76.0,52.0,47.9,41.0,40,27,12,0.00,40.00,13,6,31,0.00
2013-7-2,105.0,87.9,75.0,53.0,48.2,44.0,40,27,16,0.00,40.00,13,5,34,0.00
2013-7-3,98.0,88.6,77.0,53.0,48.2,45.0,36,25,18,0.00,40.00,15,7,33,0.00
2013-7-4,101.0,90.3,75.0,57.0,53.2,50.0,44,29,20,0.00,40.00,12,6,30,0.00
2013-7-5,99.0,89.2,75.0,58.0,51.5,41.0,45,29,19,0.00,40.00,12,6,29,0.00
2013-7-6,99.0,84.0,72.0,46.0,36.9,28.0,29,20,10,0.00,40.00,12,6,30,0.00
2013-7-7,102.0,85.7,69.0,41.0,32.5,26.0,30,17,7,0.00,40.00,8,5,27,0.00
2013-7-8,100.0,84.5,70.0,35.0,29.9,26.0,23,15,8,0.00,40.00,10,5,25,0.00
2013-7-9,102.0,88.3,70.0,35.0,31.6,27.0,24,14,8,0.00,40.00,8,4,26,0.00
2013-7-10,94.0,84.9,76.0,42.0,33.9,-99.9,24,17,13,0.00,40.00,10,6,21,0.00
2013-7-11,91.0,81.1,69.0,62.0,48.4,39.0,70,34,21,0.00,40.00,12,5,30,0.00
2013-7-12,94.0,80.2,66.0,47.0,37.9,28.0,41,24,11,0.00,40.00,13,6,28,0.00
2013-7-13,97.0,84.6,68.0,43.0,35.6,26.0,35,19,11,0.00,40.00,10,6,26,0.00
2013-7-14,94.0,83.3,69.0,39.0,34.8,31.0,28,18,12,0.00,40.00,11,6,33,0.00
2013-7-15,97.0,83.9,69.0,38.0,32.7,26.0,24,16,13,0.00,40.00,11,5,26,0.00
2013-7-16,90.0,84.8,77.0,41.0,34.6,31.0,21,17,14,0.00,40.00,17,10,34,0.00
2013-7-17,92.0,79.4,65.0,45.0,38.9,30.0,39,24,18,0.00,40.00,17,8,29,0.00
2013-7-18,96.0,81.1,63.0,46.0,43.2,38.0,45,28,16,0.00,40.00,19,7,31,0.00
2013-7-19,101.0,82.9,66.0,48.0,42.1,35.0,46,26,13,0.00,40.00,19,7,31,0.00
2013-7-20,102.0,84.2,71.0,44.0,39.0,-99.9,33,22,12,0.00,40.00,18,8,33,0.00
2013-7-21,103.0,86.6,75.0,52.0,45.8,41.0,35,25,16,0.00,40.00,8,4,28,0.00
2013-7-22,98.0,79.0,70.0,66.0,59.6,46.0,85,54,27,0.00,40.00,13,5,24,0.04
2013-7-23,93.0,80.1,67.0,66.0,58.7,50.0,82,53,26,0.00,40.00,14,6,28,0.05
2013-7-24,94.0,83.6,72.0,58.0,52.4,47.0,58,36,21,0.00,40.00,14,8,38,0.01
2013-7-25,95.0,85.5,71.0,53.0,49.5,47.0,46,30,21,0.00,40.00,16,8,39,0.00
2013-7-26,87.0,78.2,70.0,68.0,58.3,48.0,87,53,31,0.00,40.00,9,4,19,0.14
2013-7-27,96.0,79.9,69.0,70.0,59.5,49.0,87,55,26,0.00,40.00,9,4,22,0.04
2013-7-28,96.0,82.9,71.0,56.0,49.3,43.0,49,33,18,0.00,40.00,10,5,26,0.00
2013-7-29,95.0,82.2,67.0,50.0,43.3,36.0,44,27,13,0.00,40.00,12,5,25,0.00
2013-7-30,97.0,82.3,67.0,49.0,44.4,41.0,44,28,17,0.00,40.00,15,7,28,0.00
2013-7-31,94.0,79.3,66.0,48.0,42.8,33.0,45,29,17,0.00,40.00,16,7,30,0.00
2013-8-1,84.0,78.3,71.0,42.0,37.2,29.0,32,23,17,0.00,40.00,21,12,43,0.00
2013-8-2,74.0,74.0,74.0,38.0,38.0,38.0,27,27,27,0.00,40.00,10,10,21,0.00
2013-10-30,63.0,52.9,39.0,39.0,36.4,34.0,86,56,34,0.00,40.00,9,3,15,0.00
2013-10-31,44.0,42.1,40.0,39.0,37.4,36.0,86,83,74,0.00,40.00,5,4,7,0.00
2013-11-6,74.0,60.9,44.0,22.0,15.8,10.0,25,18,11,0.00,40.00,7,4,13,0.00
2013-11-7,75.0,60.1,49.0,26.0,21.8,16.0,32,23,14,0.00,40.00,12,5,21,0.00
2013-11-8,76.0,57.7,45.0,28.0,23.7,17.0,42,29,12,0.00,40.00,11,4,21,0.00
2013-11-9,77.0,56.1,46.0,28.0,19.9,-99.9,40,26,11,0.00,40.00,7,3,10,0.00
2013-11-10,79.0,60.4,50.0,18.0,14.8,12.0,24,17,9,0.00,40.00,8,4,10,0.00
2013-11-11,77.0,60.0,51.0,18.0,13.0,6.0,22,16,7,0.00,40.00,8,5,18,0.00
2013-11-12,72.0,63.0,54.0,21.0,15.5,11.0,22,16,12,0.00,40.00,7,4,10,0.00
2013-11-13,76.0,56.7,48.0,35.0,27.4,16.0,51,34,19,0.00,40.00,9,3,15,0.00
2013-11-14,76.0,59.3,48.0,35.0,31.3,25.0,53,37,15,0.00,40.00,17,6,31,0.00
2013-11-15,60.0,54.7,47.0,39.0,35.9,31.0,69,50,34,0.00,40.00,17,11,33,0.00
2013-11-16,58.0,50.8,40.0,40.0,32.4,-99.9,86,53,34,0.00,40.00,19,10,40,0.00
2013-11-17,68.0,51.7,41.0,34.0,32.0,30.0,65,49,27,0.00,40.00,11,4,22,0.00
2013-11-18,65.0,53.3,45.0,37.0,34.0,31.0,61,49,32,0.00,40.00,13,6,29,0.00
2013-11-19,60.0,53.2,48.0,41.0,36.4,34.0,70,54,41,0.00,40.00,18,9,33,0.00
2013-11-20,62.0,54.3,50.0,46.0,40.6,38.0,85,60,46,0.00,40.00,15,10,37,0.12
2013-11-21,58.0,50.0,44.0,47.0,43.4,39.0,95,79,55,0.00,40.00,11,5,32,0.47
2013-11-22,50.0,47.3,44.0,41.0,32.2,28.0,88,56,45,0.00,40.00,7,4,23,0.24
2013-11-23,55.0,48.1,44.0,38.0,32.4,-99.9,75,57,43,0.00,40.00,4,2,16,0.01
2013-11-24,62.0,47.6,39.0,39.0,34.8,32.0,79,63,32,0.00,40.00,8,3,15,0.00
2013-11-25,64.0,47.8,37.0,40.0,34.7,33.0,86,64,33,0.00,40.00,7,3,8,0.00
2013-11-26,67.0,52.8,42.0,35.0,28.0,20.0,69,42,18,0.00,40.00,10,4,27,0.00
2013-11-27,67.0,55.0,48.0,34.0,29.8,25.0,49,39,26,0.00,40.00,4,3,16,0.00
2013-11-28,61.0,52.9,47.0,32.0,28.7,26.0,52,40,27,0.00,40.00,7,3,19,0.00
2013-11-29,65.0,51.4,44.0,33.0,28.4,24.0,54,42,23,0.00,40.00,11,4,18,0.00
2013-11-30,65.0,50.1,42.0,31.0,27.1,-99.9,58,43,24,0.00,40.00,6,4,10,0.00
2013-12-1,67.0,50.5,41.0,32.0,27.3,22.0,63,43,22,0.00,40.00,7,4,9,0.00
2013-12-2,69.0,53.1,41.0,29.0,23.5,18.0,51,34,17,0.00,40.00,15,6,26,0.00
2013-12-3,58.0,49.3,38.0,44.0,34.8,21.0,85,60,24,0.00,40.00,14,9,36,0.02
2013-12-4,46.0,36.6,28.0,27.0,17.8,13.0,65,47,33,0.00,40.00,13,6,25,0.01
2013-12-5,45.0,31.3,23.0,22.0,15.6,7.0,76,54,36,0.00,40.00,15,5,25,0.00
2013-12-6,47.0,31.8,21.0,15.0,6.5,-10.0,66,40,11,0.00,40.00,12,5,31,0.00
2013-12-7,37.0,34.3,31.0,33.0,18.5,-99.9,92,56,22,0.00,40.00,16,8,35,0.63
2013-12-8,40.0,29.7,22.0,20.0,15.2,11.0,70,55,42,0.00,40.00,16,4,31,0.01
2013-12-9,49.0,30.6,22.0,15.0,8.5,3.0,66,42,18,0.00,40.00,7,5,11,0.00
2013-12-10,56.0,40.3,29.0,14.0,8.8,2.0,36,28,16,0.00,40.00,8,5,10,0.00
2013-12-11,62.0,44.3,35.0,18.0,13.2,7.0,39,29,11,0.00,40.00,8,5,13,0.00
2013-12-12,62.0,46.5,38.0,20.0,14.2,4.0,39,28,16,0.00,40.00,8,4,14,0.00
2013-12-13,60.0,43.4,34.0,24.0,18.4,15.0,56,38,19,0.00,40.00,7,3,10,0.00
2013-12-14,62.0,44.6,36.0,25.0,17.3,-99.9,56,36,18,0.00,40.00,8,5,10,0.00
2013-12-15,70.0,51.8,43.0,20.0,16.8,14.0,33,26,13,0.00,40.00,9,5,11,0.00
2013-12-16,76.0,56.8,49.0,23.0,20.9,18.0,32,25,13,0.00,40.00,8,5,11,0.00
2013-12-17,73.0,57.5,51.0,25.0,20.6,18.0,30,24,13,0.00,40.00,8,5,11,0.00
2013-12-18,65.0,57.1,52.0,27.0,23.0,20.0,34,27,20,0.00,40.00,7,3,18,0.00
2013-12-19,54.0,44.8,39.0,35.0,30.6,22.0,76,60,28,0.00,40.00,19,7,33,0.00
2013-12-20,53.0,39.8,31.0,34.0,30.1,27.0,94,70,43,0.00,40.00,6,2,10,0.00
2013-12-21,55.0,39.6,30.0,32.0,27.9,-99.9,88,67,38,0.00,40.00,5,3,7,0.00
2013-12-22,63.0,46.5,36.0,31.0,28.5,25.0,75,52,27,0.00,40.00,8,3,9,0.00
2013-12-23,66.0,50.6,42.0,29.0,27.1,23.0,51,41,24,0.00,40.00,8,5,9,0.00
2013-12-24,67.0,50.3,41.0,33.0,27.2,23.0,61,42,21,0.00,40.00,8,4,10,0.00
2013-12-25,64.0,50.0,44.0,24.0,14.7,1.0,38,26,9,0.00,40.00,8,6,10,0.00
2013-12-26,71.0,51.9,42.0,9.0,4.1,-1.0,21,15,8,0.00,40.00,8,5,10,0.00
2013-12-27,68.0,53.3,42.0,9.0,4.3,-1.0,19,14,8,0.00,40.00,9,4,11,0.00
2013-12-28,65.0,49.9,41.0,17.0,9.6,-99.9,30,20,13,0.00,40.00,7,3,10,0.00
2013-12-29,68.0,48.4,38.0,16.0,9.8,3.0,36,22,9,0.00,40.00,8,4,10,0.00
2013-12-30,68.0,49.9,39.0,12.0,5.9,-1.0,22,17,10,0.00,40.00,15,4,29,0.00
2013-12-31,68.0,50.4,42.0,17.0,12.4,9.0,32,22,13,0.00,40.00,6,3,12,0.00
2014-1-1,70.0,52.1,42.0,20.0,16.6,14.0,35,25,13,0.00,40.00,8,4,9,0.00
2014-1-2,69.0,53.2,45.0,24.0,21.3,18.0,36,29,17,0.00,40.00,8,5,10,0.00